| time (UTC) | temp F | wind direction | speed MPH | gust MPH | rain 1hr in | rain 24hr in | rain mn in | humidity % | barometer mb |
| 20260904132916 | 61 | 0 | 0.0 | 0.0 | 0.00 | 0.03 | 0.03 | 76 | 1011.2 |
| 20260904131804 | 60 | 0 | 0.0 | 0.0 | 0.00 | 0.03 | 0.03 | 77 | 1011.2 |
| 20260904130903 | 60 | 0 | 0.0 | 0.0 | 0.01 | 0.03 | 0.03 | 78 | 1011.1 |
| 20260904130004 | 59 | 0 | 0.0 | 0.0 | 0.01 | 0.03 | 0.03 | 80 | 1011.5 |
| 20260904125408 | 58 | 0 | 0.0 | 0.0 | 0.01 | 0.03 | 0.03 | 82 | 1011.5 |
| 20260904124509 | 57 | 0 | 0.0 | 0.0 | 0.02 | 0.03 | 0.03 | 84 | 1011.6 |
| 20260904123604 | 57 | 0 | 0.0 | 0.0 | 0.02 | 0.03 | 0.03 | 84 | 1011.8 |
| 20260904122704 | 57 | 0 | 0.0 | 0.0 | 0.02 | 0.03 | 0.03 | 84 | 1012.0 |
| 20260904121813 | 57 | 0 | 0.0 | 0.0 | 0.02 | 0.03 | 0.03 | 84 | 1012.1 |
| 20260904120909 | 57 | 0 | 0.0 | 0.0 | 0.01 | 0.02 | 0.02 | 83 | 1012.3 |
| 20260904120009 | 57 | 0 | 0.0 | 0.0 | 0.01 | 0.02 | 0.02 | 83 | 1012.6 |
| 20260904115405 | 57 | 0 | 0.0 | 0.0 | 0.01 | 0.02 | 0.02 | 83 | 1012.8 |
| 20260904114504 | 57 | 0 | 0.0 | 0.0 | 0.00 | 0.02 | 0.02 | 83 | 1012.6 |
| 20260904113603 | 57 | 0 | 0.0 | 0.0 | 0.00 | 0.02 | 0.02 | 83 | 1013.2 |
| 20260904112704 | 56 | 0 | 0.0 | 0.0 | 0.00 | 0.02 | 0.02 | 83 | 1013.2 |
| 20260904111808 | 57 | 0 | 0.0 | 0.0 | 0.00 | 0.02 | 0.02 | 82 | 1013.1 |
| 20260904110908 | 57 | 0 | 0.0 | 0.0 | 0.01 | 0.02 | 0.02 | 82 | 1013.2 |
| 20260904110218 | 57 | 0 | 0.0 | 0.0 | 0.02 | 0.02 | 0.02 | 82 | 1013.4 |
| 20260904105623 | 57 | 0 | 0.0 | 0.0 | 0.02 | 0.02 | 0.02 | 82 | 1013.3 |
| 20260904104509 | 57 | 0 | 0.0 | 0.0 | 0.02 | 0.02 | 0.02 | 81 | 1013.4 |
| 20260904103603 | 58 | 0 | 0.0 | 0.0 | 0.02 | 0.02 | 0.02 | 80 | 1013.4 |
| 20260904102703 | 58 | 0 | 0.0 | 0.0 | 0.02 | 0.02 | 0.02 | 79 | 1013.5 |
| 20260904101808 | 59 | 0 | 0.0 | 0.0 | 0.02 | 0.02 | 0.02 | 77 | 1013.6 |
| 20260904100913 | 59 | 0 | 0.0 | 0.0 | 0.01 | 0.01 | 0.01 | 75 | 1013.7 |
| 20260904100004 | 59 | 0 | 0.0 | 0.0 | 0.00 | 0.00 | 0.00 | 72 | 1013.5 |
| 20260904095408 | 59 | 0 | 0.0 | 0.0 | 0.00 | 0.00 | 0.00 | 72 | 1013.5 |
| 20260904094508 | 59 | 0 | 0.0 | 0.0 | 0.00 | 0.00 | 0.00 | 69 | 1013.6 |
| 20260904093604 | 60 | 0 | 0.0 | 0.0 | 0.00 | 0.00 | 0.00 | 69 | 1013.6 |
| 20260904092703 | 60 | 0 | 0.0 | 0.0 | 0.00 | 0.00 | 0.00 | 68 | 1013.7 |
| 20260904092014 | 60 | 0 | 0.0 | 0.0 | 0.00 | 0.00 | 0.00 | 68 | 1013.6 |
| 20260904090903 | 60 | 0 | 0.0 | 0.0 | 0.00 | 0.00 | 0.00 | 68 | 1013.8 |
| 20260904090013 | 59 | 0 | 0.0 | 0.0 | 0.00 | 0.00 | 0.00 | 68 | 1013.7 |
| 20260904085403 | 59 | 0 | 0.0 | 0.0 | 0.00 | 0.00 | 0.00 | 68 | 1013.7 |
| 20260904084714 | 59 | 0 | 0.0 | 0.0 | 0.00 | 0.00 | 0.00 | 68 | 1013.6 |
| 20260904083603 | 59 | 0 | 0.0 | 0.0 | 0.00 | 0.00 | 0.00 | 67 | 1013.6 |
| 20260904082713 | 59 | 0 | 0.0 | 0.0 | 0.00 | 0.00 | 0.00 | 67 | 1013.7 |
| 20260904081804 | 59 | 0 | 0.0 | 0.0 | 0.00 | 0.00 | 0.00 | 66 | 1013.9 |
| 20260904080903 | 59 | 0 | 0.0 | 0.0 | 0.00 | 0.00 | 0.00 | 66 | 1014.0 |
| 20260904080004 | 59 | 0 | 0.0 | 0.0 | 0.00 | 0.00 | 0.00 | 65 | 1014.5 |
| 20260904075408 | 59 | 0 | 0.0 | 0.0 | 0.00 | 0.00 | 0.00 | 65 | 1014.5 |
| 20260904074504 | 59 | 0 | 0.0 | 0.0 | 0.00 | 0.00 | 0.00 | 65 | 1014.8 |
| 20260904073603 | 60 | 0 | 0.0 | 0.0 | 0.00 | 0.00 | 0.00 | 64 | 1014.9 |
| 20260904072708 | 60 | 0 | 0.0 | 0.0 | 0.00 | 0.00 | 0.00 | 64 | 1014.7 |
| 20260904071809 | 60 | 0 | 0.0 | 0.0 | 0.00 | 0.00 | 0.00 | 63 | 1014.7 |
| 20260904070904 | 60 | 0 | 0.0 | 0.0 | 0.00 | 0.00 | 0.00 | 63 | 1014.7 |
| 20260904070008 | 60 | 0 | 0.0 | 0.0 | 0.00 | 0.00 | 0.00 | 63 | 1014.8 |
| 20260904065403 | 60 | 0 | 0.0 | 0.0 | 0.00 | 0.00 | 0.00 | 62 | 1014.9 |
| 20260904064509 | 61 | 0 | 0.0 | 0.0 | 0.00 | 0.00 | 0.00 | 62 | 1015.0 |
| 20260904063604 | 61 | 0 | 0.0 | 0.0 | 0.00 | 0.00 | 0.00 | 62 | 1015.2 |
| 20260904062703 | 61 | 0 | 0.0 | 0.0 | 0.00 | 0.00 | 0.00 | 61 | 1015.2 |
| 20260904061803 | 61 | 0 | 0.0 | 0.0 | 0.00 | 0.00 | 0.00 | 61 | 1015.5 |
| 20260904060903 | 61 | 0 | 0.0 | 0.0 | 0.00 | 0.00 | 0.00 | 61 | 1015.7 |
| 20260904060217 | 61 | 0 | 0.0 | 0.0 | 0.00 | 0.00 | 0.00 | 61 | 1015.8 |
| 20260904055403 | 61 | 0 | 0.0 | 0.0 | 0.00 | 0.00 | 0.00 | 61 | 1015.9 |
| 20260904054503 | 61 | 0 | 0.0 | 0.0 | 0.00 | 0.00 | 0.00 | 60 | 1015.9 |
| 20260904053603 | 61 | 0 | 0.0 | 0.0 | 0.00 | 0.00 | 0.00 | 59 | 1016.0 |
| 20260904052703 | 62 | 0 | 0.0 | 0.0 | 0.00 | 0.00 | 0.00 | 59 | 1015.9 |
| 20260904051803 | 62 | 0 | 0.0 | 0.0 | 0.00 | 0.00 | 0.00 | 58 | 1016.1 |
| 20260904050904 | 62 | 0 | 0.0 | 0.0 | 0.00 | 0.00 | 0.00 | 57 | 1016.2 |
| 20260904050008 | 63 | 0 | 0.0 | 0.0 | 0.00 | 0.00 | 0.00 | 57 | 1016.0 |
| 20260904045404 | 63 | 0 | 0.0 | 0.0 | 0.00 | 0.00 | 0.00 | 57 | 1016.1 |
| 20260904044513 | 63 | 0 | 0.0 | 0.0 | 0.00 | 0.00 | 0.00 | 58 | 1016.2 |
| 20260904043604 | 63 | 0 | 0.0 | 0.0 | 0.00 | 0.00 | 0.00 | 57 | 1016.0 |
| 20260904042703 | 63 | 0 | 0.0 | 0.0 | 0.00 | 0.00 | 0.00 | 59 | 1016.0 |
| 20260904041803 | 63 | 0 | 0.0 | 0.0 | 0.00 | 0.00 | 0.00 | 59 | 1016.0 |
| 20260904040908 | 63 | 0 | 0.0 | 0.0 | 0.00 | 0.00 | 0.00 | 58 | 1016.1 |
| 20260904040004 | 63 | 0 | 0.0 | 0.0 | 0.00 | 0.00 | 0.00 | 59 | 1016.1 |
| 20260904035405 | 62 | 0 | 0.0 | 0.0 | 0.00 | 0.00 | 0.00 | 60 | 1016.1 |
| 20260904034503 | 62 | 0 | 0.0 | 0.0 | 0.00 | 0.00 | 0.00 | 61 | 1016.1 |
| 20260904033603 | 62 | 0 | 0.0 | 0.0 | 0.00 | 0.00 | 0.00 | 60 | 1016.4 |
| 20260904032708 | 62 | 0 | 0.0 | 0.0 | 0.00 | 0.00 | 0.00 | 57 | 1016.7 |
| 20260904031804 | 64 | 0 | 0.0 | 0.0 | 0.00 | 0.00 | 0.00 | 56 | 1016.8 |
| 20260904030908 | 64 | 0 | 0.0 | 0.0 | 0.00 | 0.00 | 0.00 | 56 | 1016.7 |
| 20260904030004 | 64 | 0 | 0.0 | 0.0 | 0.00 | 0.00 | 0.00 | 56 | 1017.0 |
| 20260904025408 | 64 | 0 | 0.0 | 0.0 | 0.00 | 0.00 | 0.00 | 56 | 1017.1 |
| 20260904024503 | 64 | 0 | 0.0 | 0.0 | 0.00 | 0.00 | 0.00 | 56 | 1017.1 |
| 20260904023815 | 63 | 0 | 0.0 | 0.0 | 0.00 | 0.00 | 0.00 | 56 | 1017.2 |
| 20260904022708 | 62 | 0 | 0.0 | 0.0 | 0.00 | 0.04 | 0.00 | 57 | 1017.6 |
| 20260904021808 | 61 | 0 | 0.0 | 0.0 | 0.00 | 0.09 | 0.00 | 57 | 1017.7 |
| 20260904021119 | 61 | 0 | 0.0 | 0.0 | 0.00 | 0.09 | 0.00 | 56 | 1017.9 |
| 20260904020218 | 61 | 0 | 0.0 | 0.0 | 0.00 | 0.09 | 0.00 | 56 | 1018.0 |
| 20260904015616 | 61 | 0 | 0.0 | 0.0 | 0.00 | 0.09 | 0.00 | 56 | 1018.0 |
| 20260904014508 | 61 | 0 | 0.0 | 0.0 | 0.00 | 0.09 | 0.00 | 55 | 1018.1 |
| 20260904013609 | 61 | 0 | 0.0 | 0.0 | 0.00 | 0.09 | 0.00 | 55 | 1018.4 |
| 20260904012703 | 61 | 0 | 0.0 | 0.0 | 0.00 | 0.09 | 0.00 | 54 | 1018.2 |
| 20260904012013 | 61 | 0 | 0.0 | 0.0 | 0.00 | 0.09 | 0.00 | 55 | 1018.3 |
| 20260904010908 | 61 | 0 | 0.0 | 0.0 | 0.00 | 0.09 | 0.00 | 53 | 1018.4 |
| 20260904010008 | 61 | 0 | 0.0 | 0.0 | 0.00 | 0.09 | 0.00 | 55 | 1018.6 |
| 20260904005403 | 61 | 0 | 0.0 | 0.0 | 0.00 | 0.09 | 0.00 | 57 | 1018.9 |
| 20260904004723 | 60 | 0 | 0.0 | 0.0 | 0.00 | 0.09 | 0.00 | 58 | 1019.2 |
| 20260904003820 | 60 | 0 | 0.0 | 0.0 | 0.00 | 0.09 | 0.00 | 56 | 1019.4 |
| 20260904002703 | 59 | 0 | 0.0 | 0.0 | 0.00 | 0.09 | 0.00 | 60 | 1019.4 |
| 20260904001803 | 58 | 0 | 0.0 | 0.0 | 0.00 | 0.09 | 0.00 | 60 | 1019.4 |
| 20260904000908 | 57 | 0 | 0.0 | 0.0 | 0.00 | 0.09 | 0.00 | 63 | 1019.6 |
| 20260904000004 | 56 | 0 | 0.0 | 0.0 | 0.00 | 0.09 | 0.00 | 62 | 1019.6 |
| 20260903235408 | 56 | 0 | 0.0 | 0.0 | 0.00 | 0.09 | 0.00 | 64 | 1019.6 |
| 20260903234714 | 55 | 0 | 0.0 | 0.0 | 0.00 | 0.09 | 0.00 | 67 | 1019.8 |
| 20260903233813 | 54 | 0 | 0.0 | 0.0 | 0.00 | 0.09 | 0.00 | 68 | 1019.6 |
| 20260903232708 | 54 | 0 | 0.0 | 0.0 | 0.00 | 0.09 | 0.00 | 70 | 1020.3 |
| 20260903231803 | 53 | 0 | 0.0 | 0.0 | 0.00 | 0.09 | 0.00 | 72 | 1020.2 |
| 20260903230908 | 52 | 0 | 0.0 | 0.0 | 0.00 | 0.09 | 0.00 | 73 | 1020.0 |
| 20260903230011 | 52 | 0 | 0.0 | 0.0 | 0.00 | 0.09 | 0.00 | 75 | 1020.1 |
| 20260903225405 | 51 | 0 | 0.0 | 0.0 | 0.00 | 0.09 | 0.00 | 76 | 1020.1 |
| 20260903224509 | 50 | 0 | 0.0 | 0.0 | 0.00 | 0.09 | 0.00 | 80 | 1020.2 |
| 20260903223813 | 49 | 0 | 0.0 | 0.0 | 0.00 | 0.09 | 0.00 | 83 | 1020.2 |
| 20260903222713 | 48 | 0 | 0.0 | 0.0 | 0.00 | 0.09 | 0.00 | 87 | 1019.9 |
| 20260903221803 | 47 | 0 | 0.0 | 0.0 | 0.00 | 0.09 | 0.00 | 89 | 1019.8 |
| 20260903220903 | 46 | 0 | 0.0 | 0.0 | 0.00 | 0.09 | 0.00 | 89 | 1019.8 |
| 20260903220004 | 46 | 0 | 0.0 | 0.0 | 0.00 | 0.09 | 0.00 | 88 | 1019.7 |
| 20260903215403 | 45 | 0 | 0.0 | 0.0 | 0.00 | 0.09 | 0.00 | 88 | 1019.7 |
| 20260903214503 | 45 | 0 | 0.0 | 0.0 | 0.00 | 0.09 | 0.00 | 88 | 1019.5 |
| 20260903213603 | 44 | 0 | 0.0 | 0.0 | 0.00 | 0.09 | 0.00 | 88 | 1019.4 |
| 20260903212704 | 44 | 0 | 0.0 | 0.0 | 0.00 | 0.09 | 0.00 | 88 | 1019.3 |
| 20260903211803 | 44 | 0 | 0.0 | 0.0 | 0.00 | 0.09 | 0.00 | 88 | 1019.2 |
| 20260903211115 | 43 | 0 | 0.0 | 0.0 | 0.00 | 0.09 | 0.00 | 88 | 1019.1 |
| 20260903210008 | 43 | 0 | 0.0 | 0.0 | 0.00 | 0.09 | 0.00 | 88 | 1019.0 |
| 20260903205405 | 43 | 0 | 0.0 | 0.0 | 0.00 | 0.09 | 0.00 | 87 | 1018.9 |
| 20260903204508 | 43 | 0 | 0.0 | 0.0 | 0.00 | 0.09 | 0.00 | 87 | 1018.9 |
| 20260903203603 | 43 | 0 | 0.0 | 0.0 | 0.00 | 0.09 | 0.00 | 87 | 1018.9 |
| 20260903202705 | 43 | 0 | 0.0 | 0.0 | 0.00 | 0.09 | 0.00 | 88 | 1018.8 |
| 20260903201804 | 43 | 0 | 0.0 | 0.0 | 0.00 | 0.09 | 0.00 | 87 | 1018.8 |
| 20260903200905 | 43 | 0 | 0.0 | 0.0 | 0.00 | 0.09 | 0.00 | 87 | 1018.8 |
| 20260903200008 | 43 | 0 | 0.0 | 0.0 | 0.00 | 0.09 | 0.00 | 87 | 1018.7 |
| 20260903195403 | 43 | 0 | 0.0 | 0.0 | 0.00 | 0.09 | 0.00 | 87 | 1018.7 |
| 20260903194505 | 43 | 0 | 0.0 | 0.0 | 0.00 | 0.09 | 0.00 | 87 | 1018.8 |
| 20260903193814 | 43 | 0 | 0.0 | 0.0 | 0.00 | 0.09 | 0.00 | 87 | 1018.7 |
| 20260903192703 | 43 | 0 | 0.0 | 0.0 | 0.00 | 0.09 | 0.00 | 87 | 1018.7 |
| 20260903191806 | 43 | 0 | 0.0 | 0.0 | 0.00 | 0.09 | 0.00 | 87 | 1018.7 |
| 20260903190903 | 43 | 0 | 0.0 | 0.0 | 0.00 | 0.09 | 0.00 | 86 | 1018.6 |
| 20260903190213 | 43 | 0 | 0.0 | 0.0 | 0.00 | 0.09 | 0.00 | 86 | 1018.6 |
| 20260903185404 | 43 | 0 | 0.0 | 0.0 | 0.00 | 0.09 | 0.00 | 86 | 1018.7 |
| 20260903184503 | 43 | 0 | 0.0 | 0.0 | 0.00 | 0.09 | 0.00 | 86 | 1018.7 |
| 20260903183604 | 43 | 0 | 0.0 | 0.0 | 0.00 | 0.09 | 0.00 | 86 | 1018.6 |
| 20260903182704 | 44 | 0 | 0.0 | 0.0 | 0.00 | 0.09 | 0.00 | 86 | 1018.7 |
| 20260903182014 | 44 | 0 | 0.0 | 0.0 | 0.00 | 0.09 | 0.00 | 86 | 1018.8 |
| 20260903180903 | 44 | 0 | 0.0 | 0.0 | 0.00 | 0.09 | 0.00 | 85 | 1018.6 |
| 20260903180215 | 44 | 0 | 0.0 | 0.0 | 0.00 | 0.09 | 0.00 | 85 | 1018.6 |
| 20260903175403 | 44 | 0 | 0.0 | 0.0 | 0.00 | 0.09 | 0.00 | 85 | 1018.6 |
| 20260903174504 | 45 | 0 | 0.0 | 0.0 | 0.00 | 0.09 | 0.00 | 85 | 1018.6 |
| 20260903173605 | 45 | 0 | 0.0 | 0.0 | 0.00 | 0.09 | 0.00 | 85 | 1018.5 |
| 20260903172705 | 45 | 0 | 0.0 | 0.0 | 0.00 | 0.09 | 0.00 | 84 | 1018.6 |
| 20260903171805 | 45 | 0 | 0.0 | 0.0 | 0.00 | 0.09 | 0.00 | 85 | 1018.8 |
| 20260903170905 | 46 | 0 | 0.0 | 0.0 | 0.00 | 0.09 | 0.00 | 85 | 1018.8 |
| 20260903170004 | 46 | 0 | 0.0 | 0.0 | 0.00 | 0.09 | 0.00 | 85 | 1018.9 |
| 20260903165405 | 46 | 0 | 0.0 | 0.0 | 0.00 | 0.09 | 0.00 | 85 | 1019.1 |
| 20260903164714 | 46 | 0 | 0.0 | 0.0 | 0.00 | 0.09 | 0.00 | 85 | 1019.0 |
| 20260903163813 | 46 | 0 | 0.0 | 0.0 | 0.00 | 0.09 | 0.00 | 84 | 1019.0 |
| 20260903162705 | 46 | 0 | 0.0 | 0.0 | 0.00 | 0.09 | 0.00 | 84 | 1019.1 |
| 20260903161803 | 46 | 0 | 0.0 | 0.0 | 0.00 | 0.09 | 0.00 | 84 | 1019.2 |
| 20260903160903 | 47 | 0 | 0.0 | 0.0 | 0.00 | 0.09 | 0.00 | 83 | 1019.4 |
| 20260903160004 | 47 | 0 | 0.0 | 0.0 | 0.00 | 0.09 | 0.00 | 83 | 1019.4 |
| 20260903155405 | 47 | 0 | 0.0 | 0.0 | 0.00 | 0.09 | 0.00 | 83 | 1019.5 |
| 20260903154505 | 47 | 0 | 0.0 | 0.0 | 0.00 | 0.09 | 0.00 | 83 | 1019.5 |
| 20260903153603 | 48 | 0 | 0.0 | 0.0 | 0.00 | 0.09 | 0.00 | 82 | 1019.5 |
| 20260903152703 | 48 | 0 | 0.0 | 0.0 | 0.00 | 0.09 | 0.00 | 82 | 1019.6 |
| 20260903151803 | 48 | 0 | 0.0 | 0.0 | 0.00 | 0.09 | 0.00 | 82 | 1019.6 |
| 20260903151114 | 48 | 0 | 0.0 | 0.0 | 0.00 | 0.09 | 0.00 | 82 | 1019.7 |
| 20260903150005 | 49 | 0 | 0.0 | 0.0 | 0.00 | 0.09 | 0.00 | 81 | 1019.6 |
| 20260903145613 | 49 | 0 | 0.0 | 0.0 | 0.00 | 0.09 | 0.00 | 81 | 1019.7 |
| 20260903144505 | 49 | 0 | 0.0 | 0.0 | 0.00 | 0.09 | 0.00 | 81 | 1019.7 |
| 20260903143605 | 50 | 0 | 0.0 | 0.0 | 0.00 | 0.09 | 0.00 | 81 | 1019.7 |
| 20260903142705 | 50 | 0 | 0.0 | 0.0 | 0.00 | 0.09 | 0.00 | 80 | 1019.6 |
| 20260903141803 | 50 | 0 | 0.0 | 0.0 | 0.00 | 0.09 | 0.00 | 79 | 1019.6 |
| 20260903140905 | 50 | 0 | 0.0 | 0.0 | 0.00 | 0.09 | 0.00 | 79 | 1019.7 |
| 20260903140009 | 51 | 0 | 0.0 | 0.0 | 0.00 | 0.09 | 0.00 | 78 | 1019.8 |
| 20260903135405 | 51 | 0 | 0.0 | 0.0 | 0.00 | 0.09 | 0.09 | 77 | 1019.9 |
| 20260903134505 | 51 | 0 | 0.0 | 0.0 | 0.00 | 0.09 | 0.09 | 77 | 1019.7 |
| 20260903133604 | 51 | 0 | 0.0 | 0.0 | 0.00 | 0.09 | 0.09 | 77 | 1019.8 |